Weather History for KFYV - January, 2013

Change the Weather History Date:

Thursday, January 24, 2013

  Actual Average Record
Temperature  
Mean Temperature 40 °F 36 °F  
Max Temperature 46 °F 47 °F 76 °F (1950)
Min Temperature 34 °F 25 °F -3 °F (1963)
Degree Days  
Heating Degree Days 25 29  
Month to date heating degree days 689 714  
Since 1 July heating degree days 2207 2397  
Moisture  
Dew Point 28 °F    
Average Humidity 61    
Maximum Humidity 76    
Minimum Humidity 45    
Precipitation  
Precipitation 0.00 in 0.09 in - ()
Month to date precipitation 0.34 2.22  
Year to date precipitation 0.34 2.22  
Sea Level Pressure  
Sea Level Pressure 30.22 in    
Wind  
Wind Speed 8 mph (East)    
Max Wind Speed 15 mph    
Max Gust Speed 22 mph    
Visibility 10 miles    
Events      
T = Trace of Precipitation, MM = Missing Value Source: NWS Daily Summary

Daily Weather History Graph

Daily Weather History Graph

Search for Another Location

Airport or City:

Trip Planner

Search our weather history database for the weather conditions in past years. The results will help you decide how hot, cold, wet, or windy it might be!

Date:

Astronomy

Jan. 24, 2013 Rise Set
Actual Time 7:22 AM CST 5:35 PM CST
Civil Twilight 6:55 AM CST 6:02 PM CST
Nautical Twilight 6:24 AM CST 6:33 PM CST
Astronomical Twilight 5:53 AM CST 7:04 PM CST
Moon 3:39 PM CST (1/24) 5:19 AM CST (1/24)
Length of Visible Light 11h 07m
Length of Day
10h 12m
Waxing Gibbous, 94% of the Moon is Illuminated
Jan 24
Waxing Gibbous
Jan 26
Full
Feb 3
Last Quarter
Feb 10
New
Feb 17
First Quarter

Hourly Weather History & Observations

Time (CST) Temp. Windchill Dew Point Humidity Pressure Visibility Wind Dir Wind Speed Gust Speed Precip Events Conditions
12:53 AM 45.0 °F 41.2 °F 36.0 °F 71% 30.25 in 10.0 mi NE 6.9 mph - N/A   Scattered Clouds
1:53 AM 44.1 °F 40.1 °F 35.1 °F 71% 30.25 in 10.0 mi NE 6.9 mph - N/A   Overcast
2:51 AM 42.8 °F 40.1 °F 30.2 °F 61% 30.26 in 10.0 mi Variable 4.6 mph - N/A   Overcast
2:53 AM 43.0 °F 38.2 °F 30.9 °F 62% 30.26 in 10.0 mi NE 8.1 mph - N/A   Overcast
3:53 AM 42.1 °F 37.7 °F 28.9 °F 60% 30.25 in 10.0 mi NE 6.9 mph - N/A   Overcast
4:53 AM 42.1 °F 36.1 °F 28.0 °F 58% 30.26 in 10.0 mi ENE 10.4 mph - N/A   Overcast
5:53 AM 41.0 °F 36.4 °F 27.0 °F 57% 30.27 in 10.0 mi NE 6.9 mph - N/A   Overcast
6:53 AM 39.9 °F 33.9 °F 24.1 °F 53% 30.28 in 10.0 mi ENE 9.2 mph - N/A   Overcast
7:53 AM 39.0 °F 34.0 °F 24.1 °F 55% 30.29 in 10.0 mi ENE 6.9 mph - N/A   Overcast
8:53 AM 39.0 °F 33.4 °F 23.0 °F 53% 30.30 in 10.0 mi ENE 8.1 mph - N/A   Overcast
9:53 AM 39.9 °F 32.5 °F 21.9 °F 49% 30.32 in 10.0 mi ENE 12.7 mph - N/A   Overcast
10:53 AM 41.0 °F 35.8 °F 23.0 °F 49% 30.30 in 10.0 mi ENE 8.1 mph - N/A   Overcast
11:53 AM 44.1 °F 39.5 °F 24.1 °F 45% 30.27 in 10.0 mi NE 8.1 mph - N/A   Overcast
12:53 PM 46.0 °F 41.4 °F 27.0 °F 47% 30.24 in 10.0 mi East 9.2 mph - N/A   Overcast
1:53 PM 45.0 °F 40.1 °F 28.9 °F 53% 30.20 in 10.0 mi ESE 9.2 mph - N/A   Overcast
2:53 PM 45.0 °F 39.7 °F 28.9 °F 53% 30.18 in 10.0 mi East 10.4 mph - N/A   Overcast
3:53 PM 44.1 °F 37.7 °F 33.1 °F 65% 30.18 in 10.0 mi SE 12.7 mph - N/A   Overcast
4:53 PM 42.1 °F 36.6 °F 28.9 °F 60% 30.18 in 10.0 mi SE 9.2 mph - N/A   Overcast
5:53 PM 41.0 °F 35.8 °F 27.0 °F 57% 30.16 in 10.0 mi SE 8.1 mph - N/A   Overcast
6:53 PM 39.9 °F 34.5 °F 28.0 °F 63% 30.14 in 10.0 mi South 8.1 mph - N/A   Overcast
7:53 PM 39.0 °F 33.4 °F 28.0 °F 65% 30.13 in 10.0 mi South 8.1 mph - N/A   Overcast
8:53 PM 37.9 °F 35.5 °F 28.0 °F 68% 30.16 in 10.0 mi SSW 3.5 mph - N/A   Overcast
9:53 PM 37.0 °F 34.5 °F 28.9 °F 73% 30.16 in 10.0 mi SSW 3.5 mph - N/A   Overcast
10:39 PM 35.6 °F - 24.8 °F 65% 30.13 in 10.0 mi Calm Calm - N/A   Overcast
10:53 PM 35.1 °F 32.2 °F 28.9 °F 78% 30.15 in 10.0 mi West 3.5 mph - N/A   Overcast
11:53 PM 34.0 °F - 30.0 °F 85% 30.17 in 8.0 mi Calm Calm - N/A   Overcast